This is the latest recevied weather packets stored in our database for station/object W3AJR. If no packets are shown the sender has not sent any weather packets the latest 10 day(s).
| Time | Temp. | Humidity | Pressure | Rain* | Wind** | Luminosity | Snow |
|---|---|---|---|---|---|---|---|
| 1778013015 | 27.78° C | 29% | 1008.9 hPa | 0 mm | - | 486 W/m² | - |
| 1778012711 | 28.33° C | 29% | 1009 hPa | 0 mm | - | 437 W/m² | - |
| 1778012407 | 27.78° C | 30% | 1009 hPa | 0 mm | - | 423 W/m² | - |
| 1778012104 | 27.78° C | 30% | 1009 hPa | 0 mm | - | 393 W/m² | - |
| 1778011801 | 28.33° C | 29% | 1009.2 hPa | 0 mm | - | 385 W/m² | - |
| 1778011499 | 28.33° C | 29% | 1008.9 hPa | 0 mm | - | 435 W/m² | - |
| 1778011195 | 28.33° C | 30% | 1008.8 hPa | 0 mm | - | 541 W/m² | - |
| 1778010892 | 27.78° C | 28% | 1009.3 hPa | 0 mm | - | 564 W/m² | - |
| 1778010589 | 28.33° C | 30% | 1009.2 hPa | 0 mm | - | 535 W/m² | - |
| 1778010287 | 28.33° C | 31% | 1008.8 hPa | 0 mm | - | 539 W/m² | - |
| 1778009987 | 28.33° C | 30% | 1009.1 hPa | 0 mm | - | 471 W/m² | - |
| 1778009685 | 28.33° C | 28% | 1009.1 hPa | 0 mm | - | 627 W/m² | - |
| 1778009382 | 28.33° C | 29% | 1009.5 hPa | 0 mm | - | 595 W/m² | - |
| 1778009081 | 28.33° C | 28% | 1009.5 hPa | 0 mm | - | 558 W/m² | - |
| 1778008777 | 28.33° C | 29% | 1009.4 hPa | 0 mm | - | 573 W/m² | - |
| 1778008476 | 28.33° C | 27% | 1009.4 hPa | 0 mm | - | 617 W/m² | - |
| 1778008172 | 28.33° C | 29% | 1009.8 hPa | 0 mm | - | 624 W/m² | - |
| 1778007868 | 28.33° C | 29% | 1009.4 hPa | 0 mm | - | 595 W/m² | - |
| 1778007563 | 27.78° C | 29% | 1009.7 hPa | 0 mm | - | 650 W/m² | - |
| 1778007261 | 27.78° C | 30% | 1009.8 hPa | 0 mm | - | 678 W/m² | - |
| 1778006957 | 27.78° C | 29% | 1009.8 hPa | 0 mm | - | 635 W/m² | - |
| 1778006654 | 28.33° C | 30% | 1010.1 hPa | 0 mm | - | 632 W/m² | - |
| 1778006351 | 27.78° C | 33% | 1010.2 hPa | 0 mm | - | 655 W/m² | - |
| 1778006048 | 27.78° C | 32% | 1010 hPa | 0 mm | - | 670 W/m² | - |
| 1778005744 | 27.78° C | 32% | 1010.2 hPa | 0 mm | - | 636 W/m² | - |
* Rain latest hour (hover to see other rain measurements)
** Current wind speed in m/s (hover to see current wind gust speed)